GFSMW_925_spd_057.txt.gz
Wind_Speed
24 24 28 33 40 43 38 32 35 28 23 21 19 13 18 15 15 16 15 9 8 6 3 9 12 8 11 11 5 7 3 5 6 8 10 10 11 9 13 12 13 13 11
18 21 27 32 36 38 38 33 32 33 28 25 24 17 19 18 15 16 13 13 12 8 8 10 13 7 11 8 7 3 5 5 7 4 2 1 3 10 5 12 13 11 13
19 14 21 32 34 36 40 37 35 37 32 27 25 17 20 18 20 19 18 16 15 10 10 8 9 10 10 9 7 5 3 2 8 6 3 2 2 1 4 9 8 5 14
22 15 19 28 34 37 42 39 34 39 34 29 30 23 17 18 21 24 20 20 16 12 10 11 10 9 9 8 9 6 2 3 5 7 4 3 3 2 2 3 8 9 6
25 23 24 29 35 37 39 42 37 39 38 32 30 26 19 15 24 23 27 22 18 15 12 13 10 11 6 10 7 4 6 2 2 6 7 5 2 5 1 2 8 9 10
24 26 33 29 30 37 37 41 41 41 39 37 31 29 24 20 16 27 23 22 22 19 16 14 12 11 10 9 8 6 4 5 2 2 5 5 1 1 2 2 7 9 11
17 24 23 27 28 36 37 39 42 40 42 40 34 31 29 26 20 20 21 29 25 22 20 18 15 14 12 11 11 11 8 8 5 1 1 2 4 7 2 4 4 2 6
6 20 24 31 31 37 39 38 40 39 40 43 43 33 32 31 26 15 27 30 26 26 26 22 19 16 15 11 11 11 12 9 9 8 6 5 3 4 8 3 5 3 7
7 8 12 34 34 33 39 42 40 40 41 43 45 42 34 36 33 26 18 25 24 24 27 28 24 19 17 16 14 12 10 9 8 9 10 10 9 7 9 4 3 1 1
11 4 6 14 31 34 36 36 38 39 39 39 42 43 41 40 38 33 26 19 24 19 12 32 28 23 20 17 16 14 12 12 12 13 11 9 13 12 8 6 5 6 5
20 16 13 18 20 34 33 38 37 39 38 40 37 38 39 41 39 35 33 25 22 18 17 29 28 25 23 18 18 18 15 17 16 14 14 14 14 12 12 9 6 9 10
17 17 18 21 28 25 38 38 38 42 42 40 38 37 38 40 42 39 37 34 28 26 18 25 27 26 26 23 21 21 19 18 17 19 20 18 15 18 14 15 12 11 8
22 22 24 24 31 31 28 38 39 40 41 39 39 36 36 41 39 42 37 38 36 32 31 25 30 28 27 24 24 24 23 22 19 21 21 19 18 16 15 15 14 12 12
9 12 16 17 31 28 15 36 39 39 41 40 39 40 40 38 42 39 44 38 35 36 35 32 29 29 28 27 25 25 26 25 24 21 22 20 20 20 19 19 19 19 20
6 5 9 15 15 21 22 16 38 43 40 42 41 41 40 38 35 37 40 47 37 41 38 34 33 30 30 29 28 28 28 29 27 24 26 23 23 24 23 22 22 21 21
5 5 15 24 17 29 29 22 19 41 43 41 42 40 38 40 39 37 37 42 43 37 42 40 37 33 31 32 31 30 31 30 30 30 28 27 24 25 26 25 24 24 23
11 10 13 13 22 9 15 27 37 38 41 41 40 41 41 39 40 37 37 37 41 38 35 38 36 38 38 34 33 32 32 35 33 32 32 30 28 28 26 26 26 29 30
22 10 9 5 16 13 2 8 11 16 39 42 40 42 41 42 38 38 39 36 35 38 36 35 36 37 39 39 36 35 34 36 35 35 32 31 31 28 25 26 25 31 31
20 17 13 19 8 13 9 12 21 34 14 29 40 42 43 41 38 41 39 40 35 34 37 35 35 36 36 38 40 37 38 39 40 38 36 35 34 33 30 29 30 26 24
28 23 23 23 21 7 16 28 33 33 29 33 34 39 42 41 42 42 40 35 37 36 31 34 35 38 38 38 39 41 41 39 38 41 40 37 35 31 25 28 35 34 34
30 27 22 18 21 16 12 17 14 32 39 40 36 36 42 42 42 38 37 38 34 34 34 33 33 32 36 37 40 40 42 37 33 33 35 41 40 39 38 38 40 39 39
30 15 14 18 23 25 21 5 34 45 25 20 30 37 40 39 37 39 36 36 35 33 32 31 29 32 34 38 39 41 43 44 35 32 35 33 35 33 32 33 35 36 37
9 12 14 17 19 19 25 26 30 16 17 17 36 36 36 39 35 37 36 33 33 32 30 29 30 30 31 34 40 42 43 44 45 36 32 28 28 32 34 33 31 37 39
9 10 10 10 11 17 20 22 24 20 15 19 22 37 32 33 35 34 36 35 34 32 30 30 30 29 29 30 32 39 42 42 43 46 38 34 31 26 24 21 20 23 25
6 6 6 7 9 12 16 20 22 19 17 17 24 29 32 34 33 32 33 36 37 38 35 33 31 28 28 35 34 36 42 43 44 43 36 30 32 31 26 20 16 17 18
3 4 8 11 13 14 15 18 18 19 18 18 18 25 30 29 30 31 29 35 34 37 39 36 33 32 33 30 34 35 37 38 38 37 25 26 27 27 25 25 25 23 22

GFSMW_925_spd_060.txt.gz
Wind_Speed
15 22 21 33 37 42 39 38 39 31 28 23 20 19 21 20 18 18 15 12 11 12 17 14 11 7 12 8 7 6 4 8 10 9 8 10 14 14 14 13 13 11 10
16 19 26 34 35 38 41 39 37 37 31 27 23 18 19 16 19 18 15 13 12 10 13 16 13 11 11 9 8 6 4 8 9 6 4 1 3 11 15 17 17 16 12
18 15 21 33 33 35 40 42 39 37 32 28 24 17 17 19 18 20 18 16 15 12 12 15 13 9 14 11 9 6 8 10 7 5 2 2 3 2 2 8 18 16 16
18 16 23 32 38 35 41 43 41 37 32 29 27 24 21 19 22 23 20 18 17 14 13 11 13 13 12 12 10 7 5 7 6 5 3 0 3 2 2 3 10 9 13
20 21 24 33 36 38 38 43 41 39 34 31 31 29 21 24 22 23 23 21 19 17 13 13 14 15 12 11 11 8 6 6 3 4 3 2 2 2 2 2 4 10 12
19 17 28 34 33 36 36 40 42 41 38 35 32 34 29 21 22 27 28 24 23 21 16 15 15 15 11 14 11 9 8 6 4 3 5 3 0 1 1 2 6 6 6
17 11 17 30 33 35 35 37 41 40 41 38 35 35 32 26 20 30 31 29 27 23 23 20 17 16 16 14 14 11 10 9 6 3 3 3 2 2 3 0 2 1 5
11 14 20 28 38 39 38 37 38 39 43 42 38 36 34 31 26 23 31 32 32 28 26 25 21 18 18 15 15 14 12 11 10 8 4 4 3 1 7 3 1 2 2
15 16 26 31 35 39 41 41 40 39 43 45 43 40 37 35 33 23 26 31 32 30 30 26 24 21 20 18 15 15 13 13 12 11 10 10 8 6 5 5 4 2 1
16 13 22 34 31 39 41 40 42 41 44 44 44 44 42 39 38 33 25 26 27 31 28 30 28 24 22 20 18 15 14 15 13 12 11 11 11 10 7 6 4 4 2
16 11 15 26 27 32 35 37 37 39 36 39 41 40 42 42 40 38 35 29 24 29 28 28 32 29 25 23 21 18 15 15 14 13 13 14 10 10 8 8 8 6 4
4 6 14 21 27 31 34 37 38 40 42 41 38 39 43 46 43 42 42 37 31 24 30 26 28 35 30 25 24 21 19 18 17 16 16 14 10 11 13 11 10 11 10
7 2 4 13 14 14 26 36 39 42 41 38 39 37 37 40 43 42 44 42 37 30 23 23 25 33 33 28 26 24 22 21 20 17 18 19 18 18 14 14 13 12 12
6 5 7 5 4 10 13 19 35 38 40 40 39 38 39 39 42 43 41 44 40 40 32 28 28 34 34 31 28 27 25 24 23 22 21 20 21 19 19 18 18 17 17
5 6 8 12 10 15 17 22 19 33 37 38 38 40 37 39 40 41 42 45 47 42 42 36 32 32 35 35 34 31 28 26 25 25 24 24 21 22 20 20 21 20 21
14 10 16 17 25 19 21 23 24 20 35 38 39 38 38 36 37 40 42 43 46 47 43 41 41 37 37 37 36 32 30 28 28 28 27 26 25 25 23 23 23 23 25
12 12 12 15 17 21 14 8 23 22 18 34 36 37 37 37 37 35 38 38 41 43 41 40 41 40 40 38 36 33 32 31 32 32 31 29 28 27 26 26 24 24 25
13 14 16 19 13 18 6 4 5 18 25 13 30 33 36 36 36 36 36 36 35 38 38 39 40 40 42 41 39 36 35 35 35 36 35 33 31 29 27 27 27 27 27
13 20 23 25 26 21 23 8 11 10 12 15 13 19 33 33 35 37 37 36 33 34 37 37 37 40 40 42 44 42 38 38 39 37 36 36 34 32 28 28 29 30 30
26 22 30 26 14 14 21 24 22 20 26 24 16 15 11 32 37 37 37 37 37 36 33 35 37 38 39 39 42 41 41 39 39 40 40 38 38 36 33 31 32 34 36
23 28 22 19 8 10 16 20 28 25 27 21 16 17 24 25 37 37 36 37 36 34 34 34 35 37 41 40 41 42 43 37 33 34 34 41 40 38 38 35 34 36 36
21 20 14 14 10 10 8 10 24 31 30 30 27 27 32 32 35 37 37 37 34 35 35 32 33 36 36 41 41 43 44 44 36 33 37 39 40 38 37 38 40 41 40
22 18 17 8 15 8 8 9 13 20 16 24 25 38 38 40 42 39 39 35 35 33 32 33 33 32 32 34 40 44 45 44 46 39 34 37 36 34 33 32 32 33 33
19 17 16 8 9 10 9 10 7 13 22 30 35 36 35 35 40 39 41 38 36 36 33 33 32 29 29 32 33 39 43 43 44 48 41 38 36 33 32 30 31 32 30
25 18 15 10 12 13 13 6 9 7 15 22 31 32 29 35 35 37 38 40 42 43 39 37 32 30 31 34 35 33 39 46 47 44 40 33 35 33 33 31 27 24 23
23 16 14 10 9 12 15 12 12 10 13 17 21 22 25 25 32 31 34 41 39 41 45 40 36 34 36 31 33 35 36 37 37 37 27 28 28 29 30 31 31 27 26

GFSMW_925_spd_063.txt.gz
Wind_Speed
15 23 29 35 35 34 36 37 36 35 27 23 21 20 15 16 19 19 14 9 8 11 9 12 11 9 8 9 7 5 4 8 8 6 5 10 13 12 14 12 11 11 9
13 17 26 28 29 35 39 39 40 36 32 27 24 23 17 17 19 16 13 11 8 9 14 12 11 7 11 7 7 5 3 6 9 5 2 2 3 11 14 15 16 15 13
17 13 24 28 30 30 36 41 43 39 35 29 24 19 19 16 16 17 15 14 12 9 12 13 11 8 9 8 7 5 4 7 9 4 1 1 3 3 3 9 15 18 16
18 12 22 28 31 34 37 42 43 42 37 30 26 25 23 16 16 18 17 15 14 12 10 11 12 8 10 10 8 6 4 9 7 3 2 1 1 2 3 2 5 9 13
19 18 22 29 33 35 37 38 41 43 39 35 32 27 23 21 17 16 17 16 15 15 13 12 13 11 11 11 11 8 6 6 6 5 1 2 2 1 1 2 3 9 9
14 11 23 28 31 35 37 37 40 43 42 37 34 30 26 21 20 16 20 20 18 17 16 15 12 12 14 12 12 12 9 6 4 3 3 2 2 1 1 1 3 3 6
13 15 16 25 30 33 36 36 39 39 42 39 36 31 30 25 19 19 22 23 22 20 20 17 15 15 14 12 13 12 11 9 6 3 2 3 1 2 2 2 2 2 3
15 17 17 29 32 35 36 38 37 37 42 41 37 32 31 30 25 20 19 26 27 25 23 22 18 15 15 14 14 14 12 11 10 7 4 3 1 1 6 2 2 3 3
17 19 18 29 32 36 37 40 39 38 43 45 40 36 31 33 32 26 20 22 27 28 26 23 21 20 16 17 16 17 16 14 13 12 9 8 6 4 3 6 1 1 1
16 15 17 28 33 37 39 40 43 44 48 46 43 40 36 34 34 31 26 20 24 27 27 26 23 22 20 18 18 17 16 15 15 14 13 12 10 7 5 3 2 2 1
7 10 15 20 29 32 34 34 34 36 36 41 44 41 40 36 35 33 31 28 20 23 25 27 25 25 23 21 20 19 16 16 16 15 13 13 11 10 7 6 5 5 3
5 6 7 13 9 15 24 29 30 33 34 39 42 42 43 41 39 37 36 32 30 23 21 24 25 26 28 26 24 22 20 19 17 16 15 15 12 11 10 10 8 7 8
12 11 11 11 11 7 18 23 30 31 31 34 35 37 37 40 41 41 39 36 33 32 27 22 27 28 28 30 29 25 23 22 21 18 17 16 15 16 15 12 13 11 10
13 8 8 4 9 11 8 23 28 28 30 30 32 34 37 40 43 42 42 41 39 36 33 30 25 29 31 27 31 29 27 26 24 22 21 20 19 20 19 17 17 15 15
16 14 11 9 13 17 18 18 22 31 33 30 30 34 35 38 41 40 42 43 43 41 38 34 33 28 28 28 31 31 30 28 27 26 25 25 24 21 20 20 19 18 19
13 12 13 18 17 19 19 22 23 27 34 37 35 34 33 34 37 40 41 40 42 45 43 41 37 37 33 31 31 33 34 33 31 30 28 27 25 24 24 23 21 21 22
13 11 9 12 23 19 16 16 12 21 27 34 35 37 36 34 37 39 38 39 40 40 41 46 44 42 39 38 36 35 36 37 36 34 32 30 29 27 26 25 25 26 24
13 12 16 20 23 28 21 21 14 6 15 27 31 33 33 36 34 34 37 39 37 39 39 38 40 42 42 43 40 38 38 40 40 38 35 33 32 31 28 26 26 26 26
17 18 18 24 29 26 22 24 21 13 6 15 20 31 36 35 34 34 35 36 33 33 35 37 37 39 40 40 44 40 40 41 43 42 39 36 36 34 31 30 29 29 30
22 23 25 26 27 24 26 24 20 14 16 15 14 13 25 31 33 35 34 33 33 34 32 33 38 40 38 39 41 41 42 38 39 40 41 42 39 36 33 31 31 32 34
30 29 24 23 25 27 21 22 16 15 15 13 9 10 17 15 25 30 33 30 31 29 28 31 33 36 38 39 38 40 43 38 34 35 34 38 42 39 37 36 34 36 34
31 33 27 26 24 28 23 20 19 20 19 15 14 10 15 21 17 19 28 30 29 29 30 29 29 31 34 36 38 40 42 43 37 34 32 37 40 40 38 37 37 37 36
28 30 31 29 27 26 29 17 24 26 22 20 19 18 17 17 22 25 26 28 30 30 29 29 30 29 27 32 37 39 41 42 45 40 34 34 38 37 37 36 35 32 32
25 28 28 32 30 25 25 32 27 25 23 20 16 16 15 18 18 29 31 31 29 30 30 29 28 26 26 28 28 32 38 40 42 46 44 41 39 38 38 36 34 32 32
24 29 29 28 31 29 29 32 29 23 24 19 11 16 14 16 18 20 23 27 33 34 32 33 30 29 29 32 34 36 38 41 43 44 37 32 36 37 37 38 37 35 31
24 29 32 31 31 29 31 28 27 22 19 19 14 15 19 18 18 15 24 26 38 38 41 40 36 32 34 28 32 36 37 37 35 34 31 30 31 32 31 29 31 37 35

GFSMW_925_spd_069.txt.gz
Wind_Speed
23 23 22 21 18 17 19 21 21 20 19 17 15 12 11 9 9 9 8 5 6 5 4 5 9 7 5 4 5 5 3 2 1 2 2 3 5 6 6 5 5 5 5
19 22 23 22 22 23 22 21 21 23 22 18 15 10 11 9 8 9 9 7 4 5 7 7 9 8 6 6 5 4 3 3 3 1 2 3 1 2 2 3 5 6 6
22 20 24 25 25 23 24 25 26 26 24 18 16 14 11 9 9 10 11 8 5 4 9 9 8 6 6 5 6 4 2 3 2 1 2 2 3 5 1 2 2 4 4
20 19 25 25 26 27 27 25 27 27 26 25 18 17 15 12 11 12 11 9 8 6 7 10 8 6 8 7 6 4 1 3 4 2 0 1 1 3 2 3 2 2 3
22 22 27 29 28 26 25 27 27 25 24 27 22 17 16 14 10 10 12 11 10 8 7 7 10 10 7 9 8 5 2 2 3 2 1 0 1 1 2 3 4 3 3
21 23 29 28 28 27 25 23 24 31 27 26 27 22 18 16 13 12 12 11 10 9 9 8 9 8 7 9 7 7 5 3 2 1 1 0 2 3 4 3 3 4 4
20 20 23 28 28 27 24 23 23 25 27 28 27 28 22 21 20 17 14 12 11 11 11 11 10 9 8 9 7 9 8 5 4 2 1 1 2 3 4 4 5 4 4
20 21 25 30 29 28 27 25 23 25 26 27 30 31 28 22 20 19 16 14 13 12 11 12 10 8 9 9 9 8 7 8 6 4 2 2 1 1 3 5 5 3 3
19 20 24 29 30 29 28 27 25 25 27 30 28 29 29 28 22 20 21 16 15 12 13 12 11 10 9 8 9 8 9 9 7 6 5 3 2 1 1 3 2 4 3
14 15 20 24 26 28 28 27 27 27 31 30 29 28 28 30 27 24 24 20 18 16 13 15 15 13 12 12 11 10 9 10 8 7 7 7 5 4 3 2 1 1 2
4 9 12 17 21 22 24 26 25 24 25 26 28 27 26 28 28 25 26 25 22 17 14 15 15 15 15 14 14 12 11 11 10 10 9 8 8 6 5 5 5 5 4
17 14 3 4 13 16 18 21 23 24 26 27 28 29 32 28 25 29 28 29 26 23 18 15 15 15 16 16 16 13 13 12 11 10 10 10 9 8 7 8 8 8 7
20 18 22 22 16 2 8 16 19 21 20 22 24 25 26 26 28 28 30 29 29 26 22 20 17 16 17 18 18 17 16 14 13 12 12 11 10 10 9 9 9 8 8
16 15 18 22 22 20 17 9 8 15 18 20 23 26 30 31 30 29 29 31 33 31 27 26 24 20 19 19 18 18 17 17 16 15 14 14 13 12 11 10 11 10 10
16 16 14 19 22 25 22 18 14 9 15 21 23 26 29 33 37 33 30 31 29 31 34 29 26 25 21 20 19 18 18 17 17 17 16 16 17 17 15 13 12 11 12
15 14 17 20 21 23 24 20 19 19 15 17 25 25 25 26 27 30 36 30 31 32 30 30 29 28 27 27 27 23 18 18 17 19 20 19 20 19 18 18 19 18 15
16 16 16 21 22 24 26 22 22 21 18 16 19 24 24 25 27 28 27 28 29 30 29 30 31 35 35 34 35 32 25 21 19 20 20 20 19 21 18 18 19 20 22
16 17 21 23 24 27 28 27 24 22 21 17 10 18 23 25 25 24 27 28 28 28 30 29 31 34 36 41 41 40 36 27 26 24 24 25 23 21 21 18 17 18 18
20 20 21 23 25 24 25 30 27 23 20 18 14 9 17 21 23 25 26 26 24 25 28 28 29 29 37 39 40 40 33 32 32 31 30 29 28 31 31 26 22 21 22
25 25 25 23 22 23 24 25 25 24 21 21 19 14 10 13 19 22 24 24 23 24 24 25 26 30 34 37 38 37 32 31 34 33 33 35 37 36 36 33 25 24 26
26 28 27 23 21 21 23 25 27 24 25 22 19 19 16 11 12 14 19 21 23 23 23 25 26 28 30 34 37 35 34 32 31 33 32 35 37 41 41 39 31 31 27
24 23 25 28 24 21 21 23 25 32 28 30 23 19 22 18 12 10 14 18 23 25 25 25 26 26 29 34 36 35 35 36 32 32 32 32 35 38 37 38 41 38 33
24 23 24 24 28 23 21 24 25 25 31 29 26 24 20 21 17 13 12 15 19 25 23 23 24 26 26 28 33 38 36 36 39 35 33 32 31 33 33 32 32 31 29
25 26 26 26 27 27 26 27 27 26 26 30 28 28 22 21 18 17 15 14 20 21 23 24 25 26 26 27 27 27 37 36 37 43 36 32 29 28 26 24 27 31 26
22 24 25 27 29 28 31 30 31 29 28 27 28 25 25 21 20 18 18 17 20 23 27 27 26 26 27 29 31 29 27 27 32 28 27 28 28 28 27 26 26 25 24
23 24 25 26 28 31 32 33 29 28 29 29 27 23 20 20 22 21 23 23 25 25 28 34 34 28 33 32 31 34 36 30 26 24 28 27 27 26 25 25 26 27 30

GFSMW_925_spd_072.txt.gz
Wind_Speed
24 25 22 19 17 17 18 18 18 17 17 16 15 12 11 8 7 6 4 3 4 2 7 7 8 6 6 6 6 7 5 6 4 4 4 3 3 2 0 0 1 2 1
20 24 22 22 19 19 20 19 19 18 18 17 15 12 9 8 7 7 7 5 5 5 5 6 8 7 7 6 6 3 6 4 2 4 2 2 8 5 3 2 1 1 1
21 20 23 24 21 20 20 20 19 18 18 16 15 11 9 6 7 8 8 7 6 5 8 8 8 7 6 8 5 4 1 6 2 2 7 1 5 4 4 4 4 3 2
20 22 24 26 24 22 20 19 19 18 18 17 15 13 12 10 9 9 9 8 7 6 8 9 8 6 7 6 6 4 1 3 7 2 3 4 4 4 7 7 6 4 3
15 21 26 27 25 23 21 20 18 19 18 18 16 15 13 11 8 8 8 8 8 6 7 10 9 7 8 7 6 5 2 4 2 1 1 2 2 3 5 5 8 7 5
20 22 26 27 27 25 23 21 21 21 20 19 19 17 13 12 10 11 9 9 10 9 9 8 10 10 7 8 7 6 4 3 2 2 1 2 3 6 3 6 4 5 6
19 20 20 26 27 27 25 23 22 22 22 22 20 20 17 14 12 10 11 10 10 10 10 10 9 8 9 9 8 8 7 5 4 3 1 1 2 3 5 3 4 3 5
19 20 22 26 27 26 24 23 22 21 23 24 23 20 18 16 16 15 12 13 10 9 10 11 10 9 9 10 9 9 10 8 5 4 2 2 2 0 3 6 5 3 4
16 18 22 24 26 27 27 25 22 20 21 23 22 21 20 20 18 15 13 14 11 10 10 12 12 10 10 11 10 10 9 8 9 7 6 6 4 2 1 2 3 6 2
10 13 18 21 23 25 26 25 24 22 21 20 22 22 22 20 19 17 16 14 13 13 12 14 13 12 12 10 10 10 10 11 10 10 9 8 7 6 5 4 3 3 6
17 14 9 15 15 19 22 23 24 23 21 20 21 22 22 22 20 20 18 18 16 15 16 15 15 14 13 13 12 10 9 11 11 11 11 11 9 10 8 7 7 7 7
17 18 25 29 20 11 17 20 21 23 23 22 20 23 22 21 21 21 21 19 19 18 16 14 16 16 16 15 14 13 11 12 12 12 12 12 13 11 10 10 10 10 8
18 18 24 24 24 22 26 7 15 17 18 17 19 20 21 22 23 22 21 20 20 21 19 17 15 15 16 17 17 16 14 13 13 12 12 13 13 14 13 11 11 11 10
16 15 15 20 23 24 21 23 18 8 11 15 16 19 20 23 24 25 22 21 21 22 23 21 18 16 17 18 18 17 16 16 16 16 15 14 14 14 13 13 12 12 12
16 15 14 16 17 20 22 18 18 16 11 12 15 18 18 20 22 23 23 23 23 23 24 24 23 21 20 21 21 20 18 18 18 17 17 16 17 17 16 15 14 13 14
12 14 17 19 19 18 18 18 20 18 19 12 12 17 18 18 19 20 23 25 25 24 24 24 25 25 26 25 24 23 20 19 19 18 19 19 19 20 22 22 21 18 16
13 14 12 16 19 20 19 20 22 18 17 19 15 10 17 18 18 19 20 21 25 28 28 27 27 28 29 30 30 29 27 23 21 21 21 21 22 22 20 20 22 23 23
13 14 17 17 18 18 17 18 18 18 19 22 22 18 10 15 16 18 20 22 24 25 28 30 30 30 30 31 33 35 32 29 28 26 24 24 25 23 22 21 21 20 19
14 15 17 18 18 18 18 19 21 18 18 20 22 21 21 9 8 18 20 22 23 25 26 28 29 29 31 32 34 35 32 33 33 32 32 30 29 29 28 27 24 24 23
17 18 18 17 16 17 18 19 18 17 18 22 21 20 20 22 12 18 20 23 25 25 24 26 28 29 30 30 35 37 31 30 32 34 35 37 38 33 33 32 29 27 27
16 18 20 18 16 16 18 18 18 17 18 20 22 23 21 22 19 21 20 21 23 25 25 25 26 27 28 29 30 33 33 32 32 33 33 36 38 41 43 39 34 33 29
17 17 18 19 20 19 18 19 19 19 21 23 24 22 21 20 20 21 22 17 21 25 25 25 25 28 29 29 30 32 35 34 32 33 33 33 33 35 38 40 44 42 36
17 18 18 20 20 20 20 21 21 22 23 24 25 25 22 21 21 21 19 20 21 23 24 23 25 26 27 27 30 33 34 35 37 33 32 32 30 27 30 33 39 38 35
16 17 18 20 20 19 21 24 25 24 25 27 26 27 25 23 22 22 21 20 21 23 19 22 24 26 24 27 28 25 29 34 34 37 37 33 30 28 29 27 30 33 31
15 16 17 19 23 24 23 22 24 27 28 28 27 26 25 25 25 24 24 23 22 25 19 22 21 24 28 28 28 27 25 21 23 26 25 29 30 30 31 30 30 27 26
19 19 19 20 24 25 25 25 24 25 28 28 27 25 25 24 25 24 26 27 28 28 28 34 35 30 28 27 22 21 27 24 17 16 24 29 30 31 29 30 29 30 31

GFSMW_925_spd_075.txt.gz
Wind_Speed
21 23 22 19 21 20 19 18 17 16 15 14 14 11 11 9 8 8 6 4 5 7 6 8 6 6 8 10 6 6 2 2 2 11 5 7 7 6 3 2 3 6 4
19 22 23 21 19 21 20 19 18 17 16 14 13 10 12 11 11 10 6 4 5 6 6 10 10 6 8 5 3 3 7 6 2 6 12 5 8 7 7 3 4 2 3
18 18 21 22 19 20 20 21 20 18 17 14 12 7 4 2 5 5 7 7 5 6 5 6 4 7 5 11 5 4 2 2 2 3 8 5 0 9 9 6 6 5 5
17 17 21 23 23 21 21 21 20 19 19 15 15 12 12 12 11 11 10 8 7 6 8 8 5 8 5 12 7 3 3 2 6 3 6 5 5 3 7 7 6 6 7
20 16 22 25 20 24 23 22 20 19 19 18 12 13 15 10 11 8 11 7 8 7 9 10 8 7 8 5 6 4 4 3 3 2 3 3 0 1 7 8 9 6 5
23 19 22 26 24 25 25 23 22 20 18 18 16 13 11 11 6 12 9 9 9 9 8 10 9 8 7 7 7 6 4 6 4 7 2 3 2 11 2 5 3 9 4
14 18 12 30 27 25 27 25 22 21 20 19 17 16 13 10 9 3 9 11 12 11 13 10 10 9 7 7 8 8 5 4 4 6 10 2 3 7 3 8 2 8 6
21 21 23 28 27 26 28 26 25 22 21 20 19 17 16 14 14 11 12 9 12 14 16 11 10 10 10 8 9 9 9 10 7 6 8 8 9 2 8 6 3 2 5
17 22 23 27 28 24 29 26 25 22 21 21 20 18 18 17 15 13 11 10 10 8 11 10 11 10 9 10 10 11 12 9 9 7 7 10 8 7 4 2 7 10 3
14 15 11 10 29 27 27 27 25 23 21 20 20 20 20 18 16 13 14 12 9 10 7 13 11 11 10 9 10 13 11 11 10 12 13 12 13 6 6 6 4 7 10
15 16 20 18 24 22 22 28 27 24 22 20 19 18 19 20 19 18 16 16 13 10 9 6 10 10 11 12 12 12 8 11 12 12 8 10 13 10 10 9 9 8 8
15 14 21 24 23 25 25 11 23 26 24 22 20 19 18 19 20 19 19 17 17 15 14 12 13 14 14 13 14 14 12 12 13 14 14 13 14 15 17 10 8 10 9
17 15 23 26 26 22 21 25 16 12 19 24 22 20 19 19 19 20 19 19 18 18 17 17 16 15 16 16 16 16 15 13 14 14 14 15 15 15 16 13 16 14 13
14 14 16 21 21 20 22 22 22 21 21 11 13 18 17 17 19 20 19 19 20 19 19 19 19 18 17 17 17 18 17 16 16 15 15 15 16 16 16 16 14 15 14
15 14 14 15 18 17 22 24 18 19 19 18 12 8 11 14 16 18 20 21 20 21 21 21 21 20 19 20 21 20 19 19 18 18 17 19 18 18 18 17 18 16 16
11 12 14 16 17 18 16 20 19 19 18 18 17 15 8 7 14 16 18 19 22 22 22 22 23 24 25 25 24 22 23 24 22 21 21 20 19 22 23 25 25 18 13
10 9 11 13 13 12 12 12 14 17 17 16 16 18 17 10 12 11 17 18 21 22 24 25 24 26 28 28 27 27 26 24 22 22 20 22 23 25 22 23 26 27 26
8 8 11 10 10 9 10 11 12 11 13 14 15 19 18 16 11 14 17 17 19 20 23 25 26 26 28 32 32 32 31 30 30 25 22 25 26 23 23 23 22 23 24
7 9 10 11 10 10 10 10 12 9 10 12 14 17 18 19 18 16 14 18 18 21 22 23 25 27 29 31 33 35 31 32 32 32 33 29 27 27 29 25 24 24 25
9 9 10 10 9 10 11 12 11 12 12 14 14 15 15 16 18 18 20 21 20 21 22 23 27 28 29 29 33 33 33 31 32 32 35 39 38 35 32 33 29 29 29
9 11 11 11 11 12 13 12 12 12 13 15 16 16 16 17 15 15 15 20 21 22 22 23 25 27 28 30 33 32 33 34 31 32 30 33 36 40 43 40 34 35 30
8 9 11 13 14 14 14 14 14 14 16 18 19 19 18 17 17 18 18 17 18 21 18 21 23 27 30 31 29 31 35 35 34 33 30 30 33 34 38 41 45 46 42
8 9 9 11 12 14 15 17 17 18 19 21 22 22 22 21 19 18 19 19 19 19 17 21 17 23 28 30 32 37 38 37 39 37 34 32 31 24 20 34 37 38 42
9 11 13 12 12 14 16 18 20 20 21 23 25 25 25 25 23 22 22 21 22 19 18 18 15 23 25 27 29 26 37 40 39 41 40 41 35 32 29 20 25 31 30
11 13 14 14 17 16 18 19 19 21 24 25 26 27 27 27 26 25 24 23 23 22 19 20 19 16 21 22 20 16 12 19 30 31 28 28 29 31 31 29 29 28 26
8 11 13 16 17 18 20 20 19 20 23 26 26 25 26 27 27 26 27 26 27 25 29 30 32 33 31 34 37 32 25 19 16 16 24 26 27 27 27 27 28 29 31

GFSMW_925_spd_078.txt.gz
Wind_Speed
25 15 20 22 25 24 20 16 14 22 16 15 12 14 14 9 10 7 7 9 8 6 9 7 10 2 9 11 5 4 1 5 4 2 7 9 7 6 7 12 14 5 8
10 18 23 23 21 26 24 20 15 20 18 16 16 20 15 12 10 11 6 8 8 8 3 8 6 8 10 11 3 3 5 6 5 5 7 3 10 11 6 5 6 1 6
12 19 17 22 20 20 26 24 19 22 21 17 14 9 10 11 7 11 13 12 8 9 7 8 4 7 3 7 6 3 4 4 2 1 3 3 1 5 6 9 6 8 4
15 13 26 26 26 28 24 26 21 23 23 15 14 12 13 17 16 13 14 15 12 11 6 9 5 6 2 10 8 2 1 5 8 5 3 3 1 0 1 10 4 5 7
19 18 22 25 27 27 25 27 25 22 21 19 12 12 8 6 5 9 15 11 11 9 11 10 7 6 7 11 5 5 4 5 8 10 3 2 1 6 2 3 7 12 9
20 20 24 29 24 28 27 28 26 23 21 22 14 15 9 9 12 8 16 11 13 10 11 10 10 5 6 9 10 4 0 5 6 9 11 8 3 8 11 4 10 9 10
9 19 16 26 29 28 30 30 28 24 22 23 18 15 13 8 14 12 16 14 13 15 17 14 12 10 7 8 8 8 3 4 4 7 9 14 6 7 11 12 5 9 6
21 9 20 23 23 27 27 32 31 26 24 24 20 19 14 10 12 15 15 12 7 9 5 11 11 10 8 8 8 8 10 6 6 8 7 12 9 12 7 11 12 3 4
14 3 27 25 22 30 27 33 34 30 27 25 22 21 20 17 13 16 14 9 6 13 13 12 12 10 11 9 11 12 12 9 12 9 11 11 11 15 3 6 9 6 2
15 15 20 11 33 28 29 32 34 32 29 26 25 23 22 20 18 10 9 6 12 13 6 13 13 12 12 10 11 11 11 11 12 11 12 13 11 14 8 5 9 5 8
14 6 18 19 15 15 3 19 31 30 25 25 26 25 25 23 19 16 11 15 7 4 16 19 12 12 13 12 13 13 8 13 14 13 7 16 9 15 14 8 10 10 10
13 13 16 11 12 25 18 12 15 10 25 25 24 25 25 23 22 20 17 15 15 14 11 9 10 17 13 14 14 13 12 14 13 12 12 10 11 12 15 14 14 13 12
13 11 13 15 20 23 19 22 17 20 20 9 28 24 24 23 23 24 21 19 18 18 16 16 16 14 14 14 15 15 15 13 15 14 14 14 14 15 16 15 14 14 13
14 10 11 16 18 22 18 13 18 11 21 28 13 12 28 27 24 20 21 19 20 19 20 18 19 18 17 17 17 16 18 15 13 16 16 16 18 18 17 18 19 19 18
15 13 11 14 17 19 16 17 14 16 17 17 20 6 13 16 12 14 15 18 20 22 21 21 21 20 21 19 20 20 20 18 19 18 16 18 17 19 18 18 18 20 20
15 13 14 15 14 16 13 15 20 14 13 14 15 15 3 6 8 10 16 16 19 20 21 23 22 24 23 23 23 22 21 22 23 21 20 21 20 20 23 21 24 25 18
11 13 13 15 14 14 14 14 15 16 18 17 12 14 14 12 7 8 11 15 19 19 21 22 23 24 26 27 25 22 25 23 23 24 24 22 22 25 26 27 26 27 28
10 10 13 13 11 12 12 14 12 13 13 12 14 15 13 12 13 14 12 7 13 16 20 21 23 25 25 27 30 28 25 27 29 27 22 26 26 26 20 21 25 26 25
11 10 10 8 8 10 8 9 9 10 9 13 15 17 19 15 11 11 14 13 11 12 20 22 23 23 25 28 29 29 32 30 31 30 32 33 27 27 28 28 27 24 27
9 8 8 7 9 10 10 10 9 9 9 12 15 15 16 17 18 16 16 18 15 14 14 19 24 27 28 27 30 32 31 27 29 30 33 35 35 38 31 29 33 29 32
9 7 7 8 9 10 11 11 11 11 13 14 15 16 17 18 18 17 17 15 18 18 20 20 23 26 26 28 30 32 33 31 28 28 28 31 35 40 42 42 40 36 33
6 6 7 8 8 9 10 10 12 16 17 19 19 18 18 18 18 20 21 21 19 19 19 21 23 24 26 28 31 32 31 34 30 30 30 29 29 36 37 38 41 44 46
5 5 7 7 8 9 11 11 12 14 16 17 18 20 22 22 21 21 21 20 19 20 21 20 19 21 20 24 28 33 34 34 38 35 36 35 37 37 28 22 37 45 46
5 7 8 8 9 11 11 13 16 17 17 18 19 20 20 23 25 24 22 22 20 20 22 20 20 19 18 18 17 17 10 11 22 40 42 41 38 36 35 29 22 25 33
4 5 6 8 9 11 13 14 16 18 20 21 21 22 21 21 22 22 23 24 25 24 24 26 22 20 18 16 18 14 26 23 19 19 26 26 27 28 31 34 32 28 28
2 6 8 8 9 11 12 15 16 16 18 21 22 22 24 23 23 25 28 29 31 32 30 36 34 34 35 35 33 30 28 25 17 20 17 20 24 26 26 26 28 32 34

GFSMW_925_spd_084.txt.gz
Wind_Speed
20 32 35 34 33 34 34 32 27 21 24 18 17 15 14 12 10 14 10 9 10 9 5 8 8 4 9 9 3 5 2 3 3 4 4 8 10 12 13 12 9 8 4
13 23 29 31 35 36 33 31 29 25 24 20 15 14 12 10 10 8 7 10 10 11 8 10 10 10 8 7 6 3 1 1 4 3 0 2 2 4 9 17 15 12 9
16 15 24 28 31 33 32 32 32 28 23 22 14 11 11 10 11 10 9 11 9 11 9 10 9 10 7 7 5 2 1 1 4 5 3 2 2 3 1 10 18 13 13
10 15 23 23 32 31 30 30 32 28 23 19 18 9 16 15 14 13 11 10 10 13 10 10 8 9 6 5 5 3 3 4 9 4 5 2 2 2 2 3 12 11 7
10 11 21 27 31 33 31 30 31 27 22 17 16 15 17 14 9 14 14 11 11 12 11 13 9 10 7 7 5 5 3 5 7 12 9 5 4 6 2 2 4 10 10
13 13 20 26 28 32 32 32 32 29 24 21 15 13 15 14 9 12 17 14 12 13 11 13 11 8 9 10 8 4 2 2 4 8 9 11 5 6 3 1 5 7 8
11 13 16 23 25 28 30 33 32 30 26 22 19 13 15 14 13 12 15 17 15 14 12 15 14 11 12 8 11 6 4 3 1 3 4 6 7 12 10 3 3 3 6
6 9 16 21 25 27 32 31 33 31 28 23 22 18 15 12 11 16 17 18 15 14 12 13 13 10 10 10 10 9 8 6 6 3 4 4 5 8 13 6 2 1 2
7 9 11 11 16 21 27 35 35 33 29 26 24 22 18 16 14 13 16 16 15 16 14 17 16 14 12 12 11 12 10 11 8 6 5 5 5 6 8 11 10 1 1
11 8 11 13 10 15 15 18 28 35 32 28 26 26 22 20 18 14 14 15 18 18 20 20 19 15 14 15 14 14 14 11 11 9 9 9 8 6 6 7 9 7 1
7 7 7 9 16 12 13 13 11 20 21 23 23 23 26 25 23 20 16 16 18 17 19 18 18 17 18 14 16 14 12 12 12 12 6 8 7 6 6 6 6 6 5
6 7 9 7 17 14 18 18 13 13 10 10 16 21 23 23 24 25 21 16 17 18 17 16 17 16 18 16 16 16 14 14 12 13 14 14 12 8 7 7 7 6 6
6 7 10 9 13 13 18 22 14 12 12 9 5 7 18 22 23 24 24 22 20 21 18 16 17 19 21 18 17 17 15 14 15 15 17 15 13 14 13 13 12 12 10
6 6 7 11 13 11 12 16 15 7 6 9 9 12 3 11 15 20 21 21 22 22 23 21 18 18 20 20 21 20 21 18 17 16 17 15 15 15 13 13 13 13 13
9 8 6 10 11 13 11 11 11 9 9 10 11 6 7 4 3 5 3 8 17 23 25 22 21 20 21 21 22 22 21 21 20 21 21 20 18 17 16 18 19 17 16
9 7 9 9 10 10 14 15 12 10 10 10 9 8 2 3 8 10 12 13 14 15 21 25 23 23 23 21 24 23 23 23 24 23 24 25 23 21 21 21 22 25 24
9 7 7 12 12 11 17 21 18 18 14 9 7 7 4 1 3 10 8 10 17 16 16 23 22 23 24 24 23 22 24 26 26 26 27 25 24 24 25 25 24 23 25
7 7 10 14 15 13 9 13 18 19 18 17 16 17 10 6 4 7 9 7 8 11 11 13 18 21 23 21 23 24 25 27 27 25 28 31 30 27 26 25 26 27 27
14 18 22 22 22 21 20 23 21 20 19 18 17 16 14 12 12 9 10 14 12 12 13 11 14 14 16 16 20 22 24 26 29 27 28 28 29 30 30 32 33 31 31
24 23 21 21 20 19 19 20 19 18 17 14 13 13 12 11 11 12 11 11 13 13 13 14 16 16 15 15 16 20 23 26 27 29 30 31 31 33 32 31 32 35 38
25 23 20 20 17 14 14 19 16 16 12 11 10 10 10 11 11 12 12 14 14 15 15 15 15 16 15 18 17 17 21 24 27 30 29 30 31 30 31 32 35 38 39
21 20 20 17 13 11 11 14 15 11 9 9 10 11 12 12 12 13 14 13 15 16 15 16 16 17 16 17 18 16 18 19 23 25 26 23 23 26 27 29 32 35 36
22 20 19 17 16 13 12 15 11 10 11 11 12 12 11 12 13 14 16 18 17 19 18 18 19 20 20 19 17 19 23 19 14 13 14 18 21 23 31 36 35 33 36
21 18 16 15 12 12 12 10 9 10 10 11 12 13 15 15 15 14 14 15 17 18 19 21 21 23 26 23 22 25 28 24 25 26 27 27 28 28 29 29 32 39 41
19 17 15 12 11 9 9 8 9 11 12 12 11 13 15 16 16 16 16 15 13 14 20 19 21 20 23 26 26 26 26 27 26 30 30 31 29 30 29 27 28 29 31
23 19 15 14 11 8 6 6 8 11 13 13 13 14 15 16 16 20 24 19 15 18 18 16 18 22 25 29 29 27 25 25 27 29 27 28 28 26 25 25 25 25 28

GFSMW_925_spd_087.txt.gz
Wind_Speed
18 27 29 32 29 32 31 28 28 24 25 20 17 14 12 10 9 8 7 6 8 7 3 9 7 2 2 3 1 1 2 6 3 6 8 5 7 11 13 12 11 10 6
14 22 27 28 32 37 34 30 28 26 24 22 17 12 11 10 7 8 9 8 7 8 4 6 9 4 3 4 3 4 5 3 3 3 4 3 2 3 8 10 15 12 10
18 16 23 28 30 32 36 34 31 26 24 20 16 11 9 6 12 9 8 9 7 9 7 7 7 6 6 6 3 3 5 3 5 4 1 2 2 3 3 4 9 12 12
16 19 25 24 29 34 36 36 31 27 26 22 17 14 13 11 11 10 8 8 8 9 9 7 7 6 4 5 3 1 3 3 8 2 2 2 1 1 3 3 5 10 13
16 18 26 29 30 33 37 37 34 29 25 23 19 15 12 14 8 11 9 9 9 10 9 10 7 9 4 4 5 4 0 3 5 7 2 4 3 5 2 2 4 6 9
17 22 25 26 22 23 29 35 35 32 27 22 21 18 13 13 11 8 12 13 11 11 11 13 12 9 8 7 7 5 3 1 3 6 9 9 5 6 2 0 4 5 5
11 13 16 29 31 27 30 34 36 34 29 24 21 18 14 14 13 10 13 15 13 13 14 16 16 12 9 9 9 7 4 2 2 3 5 6 7 9 6 1 2 2 4
7 12 18 25 26 27 31 33 36 34 30 26 23 18 15 15 13 12 11 13 13 14 12 13 17 14 10 10 10 10 8 6 5 4 3 4 5 8 12 7 3 2 3
7 4 9 21 27 29 28 34 35 35 33 28 24 22 18 16 15 13 15 16 15 15 15 14 15 15 13 12 12 12 10 10 10 8 6 3 4 5 6 9 9 1 1
7 7 7 10 19 26 20 21 21 26 30 26 23 23 22 19 17 14 13 18 15 17 15 15 17 17 15 14 13 12 11 11 10 10 8 8 5 4 5 4 6 5 2
5 5 7 7 13 25 18 13 13 16 21 24 22 20 22 20 19 18 14 14 14 16 17 17 19 19 17 15 15 13 12 12 13 12 11 7 6 5 5 3 3 3 4
4 4 5 7 9 18 25 21 18 13 5 11 17 17 19 20 21 20 19 16 15 16 18 16 17 17 17 17 16 15 15 14 14 12 12 14 11 10 7 7 6 6 6
4 2 4 6 10 9 13 18 15 16 12 8 5 6 5 9 14 17 18 19 21 18 16 15 17 17 17 17 17 15 15 16 15 15 15 15 13 14 14 13 12 11 9
6 4 4 5 7 11 13 11 17 17 14 9 3 9 9 5 3 2 5 12 17 19 18 19 19 16 18 18 19 18 16 17 18 17 17 15 14 15 15 14 12 11 11
8 6 5 7 6 8 9 9 8 10 11 10 10 13 6 7 7 5 2 4 5 10 15 16 19 19 18 18 18 20 20 20 21 20 20 20 20 18 16 16 16 16 16
7 9 9 10 9 10 10 10 9 7 8 8 9 4 7 2 2 6 5 4 8 10 14 16 17 18 21 21 20 21 22 22 23 24 23 22 21 23 21 20 21 20 20
8 7 7 10 12 13 15 17 14 12 13 13 11 8 6 4 2 3 6 6 7 8 10 12 10 15 19 20 21 21 21 22 23 23 23 23 24 24 23 24 24 25 25
8 7 11 15 13 15 17 18 20 22 21 21 19 15 13 10 6 5 4 6 7 9 12 13 13 13 11 17 18 20 21 23 24 25 23 24 25 22 24 26 28 27 27
14 16 18 19 20 22 21 22 21 20 19 19 17 14 13 12 12 12 11 10 7 9 9 13 14 15 17 13 12 14 16 20 23 24 25 25 27 27 26 26 28 30 33
21 23 22 23 23 19 18 19 18 18 18 15 13 12 11 10 9 9 9 9 11 10 11 11 12 16 15 14 12 11 13 15 18 21 23 23 24 25 26 26 28 33 36
23 20 20 21 18 14 12 18 16 17 12 10 9 9 10 10 11 10 10 9 10 9 11 11 8 8 12 15 21 14 12 14 14 17 21 20 19 19 19 20 25 31 30
21 22 22 19 15 14 12 15 15 10 9 8 8 10 11 10 10 11 11 11 11 11 10 13 12 11 12 14 15 15 18 18 15 14 13 13 13 15 19 22 26 28 27
22 20 20 17 13 12 9 12 9 7 8 7 8 8 8 10 10 11 12 13 13 14 15 15 16 17 17 18 19 18 17 18 20 18 18 18 18 20 23 22 22 24 26
24 23 22 18 15 11 9 9 8 7 7 8 8 9 10 10 11 11 11 11 13 14 15 16 18 20 21 22 23 26 26 26 25 25 24 23 23 22 26 26 26 25 25
25 24 21 20 17 13 9 7 6 6 7 7 7 9 10 11 12 12 14 12 8 9 13 15 16 20 22 21 23 25 27 28 29 30 29 28 28 27 26 27 28 27 26
24 21 19 19 17 13 9 6 5 6 6 6 6 8 8 9 11 13 14 12 12 12 9 9 12 17 18 21 23 24 25 24 24 27 26 28 27 26 26 26 28 30 29

GFSMW_925_spd_093.txt.gz
Wind_Speed
21 20 20 19 19 17 16 17 16 15 14 11 12 9 9 9 8 8 6 5 5 4 3 2 4 3 4 5 5 4 5 5 8 5 4 3 3 2 2 2 2 2 4
15 19 21 21 20 20 17 17 18 17 15 15 13 9 12 8 7 7 6 5 5 5 2 5 4 3 4 3 4 4 3 5 7 4 2 3 3 4 4 4 2 2 2
18 17 21 22 20 20 20 18 19 19 19 15 14 13 12 10 8 7 8 7 6 7 4 3 4 2 2 2 3 4 5 5 5 7 3 1 3 5 3 4 3 3 2
18 20 23 22 23 22 19 20 22 22 22 18 13 14 11 10 8 8 7 7 8 7 8 5 4 2 3 5 3 3 5 5 6 3 5 5 3 3 2 2 2 2 1
20 19 25 26 25 22 22 21 22 23 21 23 18 13 11 6 5 7 8 8 8 8 9 7 6 6 4 5 4 2 4 5 6 6 3 4 3 4 2 2 3 2 3
19 21 23 20 21 19 18 20 20 23 21 21 19 16 12 10 8 7 8 8 8 8 11 9 8 9 6 4 4 4 4 4 5 6 6 6 5 6 4 2 2 3 2
16 15 17 21 20 21 20 26 19 21 24 22 18 18 13 10 9 9 7 10 10 9 11 10 11 8 7 5 5 5 4 3 3 5 4 4 4 5 4 4 3 2 2
16 17 21 21 25 22 16 23 19 22 22 22 21 19 16 10 7 7 5 6 9 7 8 9 8 10 8 6 7 6 6 4 2 1 2 2 2 3 4 4 5 1 1
16 16 20 23 24 26 24 20 19 19 20 19 17 18 17 15 10 9 7 4 7 8 9 10 9 10 10 9 7 7 8 7 6 5 4 2 1 2 2 2 4 4 3
12 11 16 18 20 23 22 12 17 13 16 17 18 17 15 13 11 10 8 6 6 9 9 10 10 10 10 12 11 9 10 10 8 7 8 7 5 3 3 2 1 2 3
7 7 9 12 14 20 26 22 17 14 15 19 19 18 16 15 14 10 8 6 7 8 9 10 11 13 12 13 14 11 11 12 10 10 10 8 8 6 5 5 4 4 3
4 5 6 8 14 18 23 21 16 13 16 19 23 20 15 16 16 15 12 9 7 6 6 7 10 11 11 12 14 13 10 12 11 9 10 9 8 9 8 7 7 7 6
4 3 4 7 11 16 16 20 17 15 14 16 17 15 13 14 16 14 14 13 11 11 10 8 6 8 9 10 11 11 11 12 13 13 11 10 9 10 11 9 10 10 9
3 3 3 4 5 11 11 16 15 16 18 20 17 15 13 9 11 10 9 9 9 9 10 10 8 6 7 6 8 10 11 14 12 11 13 12 10 10 10 9 9 10 10
4 4 4 4 5 8 18 18 17 18 19 19 16 17 14 10 5 5 6 6 5 4 5 7 8 7 7 6 7 7 9 11 12 12 13 14 12 12 12 11 11 11 13
4 5 6 6 6 8 14 18 18 19 17 14 14 15 13 10 7 6 7 5 5 6 5 3 4 5 6 10 12 12 11 11 11 12 13 13 15 14 14 15 16 16 15
8 7 8 10 10 10 13 17 16 16 17 15 13 12 12 11 10 7 7 6 5 4 5 6 7 6 2 5 11 13 12 12 13 14 14 14 13 13 14 13 14 15 17
9 10 12 14 13 16 18 19 18 19 19 17 15 13 12 9 7 6 6 4 3 5 5 6 7 6 7 2 3 5 7 8 9 10 12 13 15 14 15 15 15 15 17
12 13 14 16 16 19 20 22 21 20 19 16 14 12 11 10 9 8 7 6 4 5 5 6 9 7 10 10 4 3 3 3 3 5 7 9 9 12 15 15 14 15 15
14 14 14 16 17 16 19 21 18 17 16 13 12 11 10 9 8 7 6 6 6 6 8 11 10 8 8 9 10 6 7 7 6 3 2 2 4 5 6 7 8 11 12
16 16 16 14 16 14 13 14 11 12 10 10 9 9 8 8 8 6 6 7 7 8 9 10 9 7 6 7 11 12 8 8 7 7 6 8 11 11 11 11 11 11 16
15 16 17 15 11 10 9 11 9 8 8 8 8 8 7 5 6 5 5 6 6 7 6 6 5 6 6 8 10 10 10 9 7 7 9 13 11 12 11 11 12 13 16
14 12 13 12 9 8 8 10 8 6 6 7 7 7 6 7 6 5 5 5 6 6 4 5 4 5 6 7 11 12 12 10 10 10 13 16 16 15 13 13 15 14 10
14 12 12 10 9 6 6 8 7 6 6 6 6 6 6 6 6 5 5 5 5 5 4 5 5 6 7 10 13 14 14 15 13 16 14 14 14 12 13 12 11 11 10
13 13 12 11 10 10 8 7 7 6 6 6 5 5 5 5 6 7 6 5 6 5 4 4 4 5 6 10 12 14 14 15 14 15 11 11 11 11 10 11 12 11 12
19 17 14 13 12 10 9 8 7 6 7 6 5 5 4 4 4 5 7 9 8 6 6 5 5 4 4 8 9 8 8 8 10 8 9 10 10 11 12 14 14 13 14